[[{"header":{"parameterUnit":"m.s-1","parameterCategory":1,"la1":30.2991,"la2":30.254,"lo1":-89.0895,"lo2":-89.0444,"dy":0.0017,"dx":0.0017,"nx":28,"ny":28,"refTime":"2024-06-01T21:00:00:Z","depth":0,"parameterNumber":2,"parameterNumberName":"U-component_of_WINDS"},"data":[0,0,0,0,0,0,0,0,0,0,0,0,0,0,0,0,0,0,0,0,0,0,0,0,0,0,0,0,0,0,0,0,0,0,0,0,0,0,0,0,0,0,0,0,0,0,0,0,0,0,0,0,0,0,0,0,0,0,2.3142,2.3136,0,2.2572,2.2566,2.2559,2.2204,2.2202,2.22,2.2199,2.1611,2.1597,2.1584,0,0,0,0,0,0,0,0,0,0,0,0,0,2.3918,2.3906,2.3143,2.3136,2.3128,2.2573,2.2566,2.2558,2.2205,2.2202,2.22,2.2198,2.1615,2.1599,2.1582,0,0,0,0,0,0,0,0,0,0,0,0,0,2.3489,2.3902,2.3144,2.2885,2.2857,2.2575,2.2565,2.2556,2.2205,2.2202,2.2199,2.2197,2.1621,2.1601,2.158,2.151,0,0,2.1517,2.1508,0,0,0,0,0,0,0,0,2.3513,2.346,2.2931,2.2903,2.287,2.2456,2.2623,2.2205,2.2206,2.2452,2.2198,2.2195,2.1894,2.1851,2.175,2.1482,2.1457,2.1515,2.1502,2.1493,2.1487,0,0,0,0,0,0,0,2.3544,2.3483,2.2917,2.2923,2.2886,2.2795,2.2731,2.2542,2.2196,2.2431,2.2403,2.2341,2.1877,2.1771,2.1734,2.1448,2.1515,2.1497,2.1484,2.1476,2.1087,2.1089,0,0,0,0,0,0,2.3615,2.351,2.2935,2.29,2.3191,2.2784,2.2712,2.2592,2.2197,2.2135,2.2344,2.2327,2.1808,2.1758,2.1712,2.1598,2.1493,2.1474,2.1462,2.1085,2.1088,2.109,0,0,0,0,0,0,2.3633,2.3567,2.2958,2.3197,2.3113,2.2774,2.2642,2.2582,2.2476,2.2132,2.2068,2.23,2.1804,2.1741,2.1561,2.1573,2.1464,2.1446,2.1083,2.1086,2.1089,2.1376,0,0,0,0,0,0,2.3657,2.3576,2.3548,2.3199,2.3101,2.282,2.2643,2.2573,2.2441,2.2413,2.2073,2.2014,2.1797,2.1594,2.1541,2.1543,2.1429,2.108,2.1084,2.1088,2.1364,2.1388,2.141,0,0,0,0,0,2.3686,2.3651,2.3548,2.3481,2.3059,2.2822,2.2765,2.2517,2.2444,2.2411,2.2189,2.2025,2.1582,2.1579,2.1516,2.1512,2.1078,2.1083,2.1088,2.1353,2.1384,2.1409,0,0,0,0,0,0,2.4009,2.3601,2.3482,2.3334,2.3116,2.2762,2.2713,2.2557,2.2354,2.2336,2.2034,2.196,2.181,2.1642,2.1647,2.1419,2.131,2.1303,2.1534,2.156,2.1583,2.1624,2.1412,0,0,0,0,0,2.4064,2.3907,2.3558,2.3461,2.3357,2.3056,2.2943,2.277,2.253,2.2436,2.2201,2.1974,2.1781,2.1662,2.1467,2.1339,2.1256,2.1304,2.1327,2.1348,2.1344,2.1258,2.1273,2.1106,2.1106,2.1106,0,0,2.4173,2.3931,2.385,2.3519,2.3329,2.3171,2.298,2.2821,2.2699,2.2411,2.2226,2.2047,2.1772,2.1617,2.1537,2.1473,2.1372,2.1354,2.1373,2.1356,2.1264,2.1281,2.1295,2.1109,2.1109,2.1108,0,0,2.4291,2.4095,2.399,2.3803,2.3518,2.3317,2.3293,2.2962,2.2832,2.2642,2.2421,2.2271,2.1949,2.1761,2.1624,2.167,2.1509,2.1615,2.1733,2.1653,2.1666,2.1676,2.1688,2.1696,2.1612,2.1613,2.1613,0,2.4463,2.4217,2.3955,2.3808,2.3667,2.34,2.3289,2.3121,2.2787,2.2695,2.2629,2.2216,2.2013,2.1807,2.1818,2.1718,2.1676,2.165,2.1686,2.1693,2.1699,2.1706,2.1712,2.1627,2.1626,2.1624,2.1623,0,2.444,2.4273,2.4222,2.3907,2.376,2.3633,2.3349,2.3232,2.3072,2.2878,2.2685,2.2432,2.2179,2.2118,2.1961,2.1889,2.1857,2.1744,2.1627,2.1734,2.1735,2.1736,2.1648,2.1643,2.1638,2.1635,0,0,2.4745,2.4285,2.427,2.4122,2.3788,2.3651,2.3511,2.3264,2.3167,2.2946,2.2817,2.255,2.2441,2.2285,2.2104,2.2035,2.208,2.1926,2.1915,2.196,2.198,2.2066,2.2074,2.1974,2.1973,2.1973,2.2001,0,2.481,2.4544,2.4303,2.4124,2.3963,2.3706,2.3582,2.3363,2.3177,2.3012,2.2805,2.2619,2.2491,2.2395,2.2315,2.2093,2.208,2.2087,2.1846,2.1841,2.1919,2.2075,2.2164,2.2204,2.2001,2.2001,2.2001,0,2.485,2.4639,2.4445,2.4122,2.4046,2.394,2.3691,2.3539,2.3282,2.3151,2.2978,2.2787,2.2622,2.2527,2.2292,2.2303,2.219,2.2066,2.2061,2.2026,2.1925,2.2039,2.2211,2.2216,2.2,2.2,2.2,0,2.5086,2.4754,2.4593,2.4475,2.4096,2.4026,2.3865,2.3606,2.3472,2.3256,2.3164,2.2933,2.2805,2.2628,2.2378,2.2332,2.2168,2.2053,2.2051,2.2058,2.2025,2.203,2.2178,2.1962,2.1962,2.1962,2.1962,0,2.5181,2.5071,2.4693,2.4594,2.4462,2.4185,2.4061,2.3877,2.3648,2.3506,2.3271,2.3142,2.2822,2.2654,2.2458,2.2291,2.2236,2.2123,2.2071,2.2141,2.2155,2.206,2.2049,2.1963,2.1963,2.1962,2.1962,0,2.5421,2.5165,2.4971,2.4629,2.454,2.4457,2.4161,2.4054,2.3855,2.3678,2.362,2.3308,2.3097,2.2831,2.2537,2.2404,2.2257,2.2181,2.2345,2.2313,2.2325,2.2326,2.2413,2.2408,2.2203,2.2206,2.2208,0,2.5497,2.5405,2.5053,2.4942,2.4788,2.4612,2.4473,2.4197,2.4062,2.3763,2.369,2.3462,2.3264,2.294,2.2684,2.2457,2.237,2.2416,2.2334,2.2406,2.2364,2.2371,2.2358,2.2436,2.244,2.2443,2.2445,0,2.5657,2.5534,2.5345,2.511,2.4952,2.4754,2.4546,2.4468,2.4147,2.4007,2.379,2.3637,2.3335,2.311,2.2849,2.2679,2.2507,2.2474,2.246,2.2529,2.2625,2.2568,2.2397,2.2472,2.2469,2.2467,2.2466,2.2465,2.5812,2.5717,2.5454,2.525,2.5064,2.4874,2.4755,2.4541,2.4356,2.4089,2.3937,2.3724,2.3465,2.3097,2.2934,2.276,2.2696,2.2679,2.2673,2.2672,2.2692,2.2658,2.2712,2.2711,2.271,2.2709,2.2708,0,2.5955,2.5773,2.5589,2.5304,2.5143,2.4998,2.4759,2.4633,2.4448,2.4223,2.4033,2.3781,2.3561,2.3289,2.305,2.2963,2.2878,2.2909,2.291,2.2872,2.2765,2.2798,2.2981,2.2981,2.2981,2.2981,2.2981,2.2981,2.6011,2.5841,2.5688,2.5423,2.5239,2.5029,2.4904,2.4726,2.4544,2.4274,2.4091,2.3915,2.3669,2.341,2.32,2.3125,2.3045,2.31,2.3001,2.2905,2.2881,2.2858,2.2887,2.3086,2.3086,2.3121,2.3122,2.3122]},{"header":{"parameterUnit":"m.s-1","parameterCategory":1,"la1":30.2991,"la2":30.254,"lo1":-89.0895,"lo2":-89.0444,"dy":0.0017,"dx":0.0017,"nx":28,"ny":28,"refTime":"2024-06-01T21:00:00:Z","depth":0,"parameterNumber":3,"parameterNumberName":"V-component_of_WINDS"},"data":[0,0,0,0,0,0,0,0,0,0,0,0,0,0,0,0,0,0,0,0,0,0,0,0,0,0,0,0,0,0,0,0,0,0,0,0,0,0,0,0,0,0,0,0,0,0,0,0,0,0,0,0,0,0,0,0,0,0,4.1785,4.1788,0,4.212,4.2124,4.2128,4.2288,4.2288,4.2288,4.2287,4.2624,4.2633,4.2642,0,0,0,0,0,0,0,0,0,0,0,0,0,4.1277,4.1285,4.1785,4.1789,4.1793,4.2119,4.2124,4.2129,4.2288,4.2288,4.2287,4.2287,4.2621,4.2632,4.2643,0,0,0,0,0,0,0,0,0,0,0,0,0,4.1543,4.1288,4.1784,4.1912,4.1927,4.2118,4.2124,4.213,4.2288,4.2288,4.2287,4.2287,4.2618,4.2631,4.2644,4.2732,0,0,4.2686,4.2692,0,0,0,0,0,0,0,0,4.1527,4.1561,4.1889,4.1904,4.192,4.2162,4.2069,4.2331,4.2288,4.215,4.2287,4.2287,4.247,4.2496,4.2559,4.2748,4.2762,4.2687,4.2696,4.2701,4.2705,0,0,0,0,0,0,0,4.1509,4.1548,4.1917,4.1893,4.1913,4.1951,4.1988,4.2119,4.2307,4.2162,4.2175,4.2213,4.2479,4.2545,4.2568,4.2767,4.2687,4.2699,4.2707,4.2713,4.3046,4.3046,0,0,0,0,0,0,4.147,4.1531,4.1907,4.1927,4.172,4.196,4.2002,4.2084,4.2306,4.234,4.2213,4.2219,4.2522,4.2552,4.2581,4.2699,4.2701,4.2714,4.2722,4.3045,4.3046,4.3047,0,0,0,0,0,0,4.1459,4.1502,4.1893,4.1733,4.1786,4.1969,4.206,4.2091,4.2158,4.2344,4.2378,4.2247,4.2523,4.2561,4.2694,4.2713,4.272,4.2733,4.3044,4.3045,4.3046,4.2935,0,0,0,0,0,0,4.1444,4.1497,4.1534,4.1733,4.1793,4.2002,4.2061,4.2098,4.2182,4.2194,4.2385,4.2416,4.2526,4.2673,4.2707,4.2732,4.2743,4.3043,4.3045,4.3046,4.2938,4.2932,4.2927,0,0,0,0,0,4.1425,4.1488,4.1535,4.1579,4.1843,4.2003,4.2038,4.2164,4.2183,4.2221,4.234,4.241,4.2705,4.2685,4.2725,4.2754,4.3043,4.3044,4.3046,4.294,4.2933,4.2927,0,0,0,0,0,0,4.1284,4.1516,4.1571,4.17,4.1831,4.203,4.2081,4.2153,4.2279,4.2284,4.2434,4.2476,4.2595,4.2688,4.2662,4.2851,4.288,4.289,4.2786,4.2781,4.2776,4.2752,4.2755,0,0,0,0,0,4.1268,4.1381,4.1576,4.1671,4.1735,4.1896,4.197,4.2057,4.2197,4.2252,4.2382,4.2513,4.2636,4.2714,4.2837,4.2952,4.2996,4.2991,4.2986,4.2981,4.2987,4.3056,4.3056,4.3051,4.3051,4.3051,0,0,4.1237,4.1377,4.1439,4.1647,4.1758,4.187,4.1941,4.2056,4.214,4.2269,4.2404,4.2502,4.2659,4.2784,4.2845,4.2865,4.2998,4.2982,4.2977,4.2987,4.3057,4.3058,4.3058,4.3052,4.3052,4.3052,0,0,4.1236,4.1354,4.1447,4.1557,4.1726,4.1833,4.1854,4.2043,4.2115,4.2252,4.2352,4.2452,4.266,4.2768,4.285,4.289,4.296,4.2926,4.2898,4.2963,4.2964,4.2965,4.298,4.2983,4.2932,4.2931,4.2931,0,4.1175,4.1349,4.1484,4.1595,4.1683,4.1807,4.1902,4.2001,4.22,4.2257,4.2277,4.2541,4.2656,4.2807,4.2817,4.2879,4.2908,4.2905,4.2953,4.2955,4.2958,4.2975,4.298,4.2926,4.2927,4.2927,4.2928,0,4.1266,4.1384,4.1438,4.163,4.1724,4.1825,4.1975,4.2053,4.2131,4.2235,4.2373,4.2515,4.2669,4.2711,4.2787,4.2874,4.2881,4.2924,4.2957,4.2952,4.2969,4.2976,4.2919,4.2921,4.2922,4.2923,0,0,4.1187,4.1452,4.147,4.1559,4.1754,4.1847,4.1953,4.2106,4.2171,4.2303,4.2396,4.2569,4.2611,4.2704,4.2793,4.285,4.2873,4.2887,4.2893,4.288,4.2979,4.2945,4.295,4.292,4.2922,4.2923,4.2966,0,4.1214,4.1413,4.1538,4.1685,4.1796,4.1916,4.2008,4.2137,4.2237,4.2344,4.2454,4.2575,4.2621,4.2678,4.2739,4.2857,4.2895,4.2856,4.3007,4.3011,4.2966,4.296,4.2925,4.2958,4.2973,4.2975,4.2976,0,4.1273,4.1405,4.1564,4.1747,4.1799,4.188,4.203,4.2132,4.2279,4.2348,4.2452,4.2542,4.2658,4.268,4.2841,4.2812,4.2881,4.2948,4.2952,4.2972,4.2993,4.298,4.2972,4.2976,4.2988,4.2987,4.2986,0,4.12,4.1417,4.1541,4.1613,4.1829,4.1884,4.1976,4.2124,4.2208,4.2339,4.2395,4.2535,4.2613,4.2719,4.2845,4.285,4.2994,4.3026,4.3054,4.3051,4.308,4.3076,4.3083,4.3122,4.3121,4.3121,4.3121,0,4.1218,4.1311,4.1512,4.1587,4.1695,4.1836,4.1938,4.204,4.217,4.2267,4.2378,4.2466,4.2627,4.2735,4.2833,4.2952,4.2986,4.3044,4.3069,4.3035,4.3028,4.3083,4.3084,4.3123,4.3123,4.3122,4.3122,0,4.1155,4.1294,4.1437,4.163,4.1681,4.1752,4.1917,4.1995,4.21,4.2222,4.2258,4.2424,4.2556,4.2693,4.2871,4.2938,4.3053,4.3088,4.3004,4.3019,4.3039,4.3035,4.3082,4.3096,4.3123,4.3122,4.3122,0,4.1158,4.1233,4.1435,4.1509,4.16,4.1717,4.1804,4.1946,4.2031,4.2206,4.2262,4.2403,4.2524,4.273,4.2865,4.3002,4.3041,4.3048,4.3062,4.3026,4.3043,4.3037,4.3046,4.3043,4.3042,4.3041,4.304,0,4.1149,4.1214,4.1336,4.1482,4.1584,4.1705,4.183,4.1884,4.2049,4.214,4.2278,4.2371,4.2555,4.2694,4.2847,4.2941,4.3018,4.3035,4.3049,4.3015,4.2964,4.2993,4.2991,4.3033,4.3034,4.3034,4.3035,4.3035,4.1121,4.1193,4.1347,4.1479,4.1589,4.1703,4.1786,4.1903,4.2021,4.2183,4.2259,4.2397,4.2543,4.2758,4.285,4.2959,4.2981,4.3,4.3006,4.3009,4.3001,4.2945,4.2988,4.2988,4.2988,4.2989,4.2989,0,4.1118,4.1223,4.1344,4.1516,4.162,4.1685,4.1827,4.1909,4.2031,4.2161,4.2278,4.2436,4.2572,4.2718,4.2861,4.2921,4.296,4.2954,4.2951,4.2972,4.2973,4.2947,4.292,4.292,4.292,4.292,4.292,4.292,4.1129,4.1255,4.1338,4.1519,4.1623,4.1761,4.1837,4.1943,4.2048,4.2221,4.2334,4.2429,4.2566,4.2721,4.2848,4.2887,4.2935,4.2919,4.2968,4.2967,4.2972,4.2977,4.2953,4.2928,4.2928,4.2959,4.2959,4.2959]}]]